Regional Weather Roundup
Issued by NWS

Current Version | Previous Version | Text Only | Print | Product List | Glossary On
Versions: 1 2 3 4 5 6 7 8 9 10 11 12 13 14 15 16 17 18 19 20 21 22 23 24 25 26 27 28 29 30 31 32 33 34 35 36 37 38 39 40 41 42 43 44 45 46 47 48 49 50
000
ASUS44 KLIX 251711
RWRLA
LOUISIANA WEATHER ROUNDUP
NATIONAL WEATHER SERVICE NEW ORLEANS LA
1200 PM CDT SUN OCT 25 2020

NOTE: "FAIR" INDICATES FEW OR NO CLOUDS BELOW 12,000 FEET WITH NO
      SIGNIFICANT WEATHER AND/OR OBSTRUCTIONS TO VISIBILITY.
      SKY/WX - SKY CONDITION AND SIGNIFICANT WEATHER.
      TMP - AIR TEMPERATURE.    DP   - DEWPOINT TEMPERATURE.
      RH  - RELATIVE HUMIDITY.  PRES - PRESSURE.
      HX  - HEAT INDEX.         WCI  - WIND CHILL INDEX.

*  THESE STATIONS ARE NOT NWS OR FAA STATIONS AND ARE NOT UNDER
   NWS QUALITY CONTROL.

LAZ040-048-061>063-065-066-069-251800-
SOUTHEAST LOUISIANA

CITY           SKY/WX    TMP DP  RH WIND       PRES   REMARKS
N.O. INTL ARPT CLOUDY    65  58  78 N6        30.01F
N.O. LAKEFRONT CLOUDY    66  59  78 NE8       30.02F
RESERVE*       CLOUDY    66  58  75 N6        30.03S
SLIDELL        CLOUDY    67  59  75 NE8       30.01F
BATON ROUGE    PTSUNNY   66  57  72 CALM      30.02F
BOOTHVILLE*    CLOUDY    67  63  85 MISG      30.01F
BELLE CHASSE*  CLOUDY    67  63  87 NE7       30.00F
BOGALUSA*      CLOUDY    66  59  78 NE6       30.02F
GALLIANO*      CLOUDY    67  61  80 N7        30.01F
NEW ROADS*     CLOUDY    63  57  82 CALM      30.03F
GONZALES*      CLOUDY    67  58  74 CALM      30.01F
HAMMOND*       MOSUNNY   64  57  77 N5        30.02S
HOUMA*         CLOUDY    64  61  88 NE7       30.02F
PORT FOURCHON* NOT AVBL

$$

LAZ041-044-053-054-251800-
SOUTHWEST LOUISIANA

CITY           SKY/WX    TMP DP  RH WIND       PRES   REMARKS
LAKE CHARLES   PTSUNNY   63  57  81 CALM      30.03F
LAFAYETTE      CLOUDY    65  58  78 VRB3      30.02F
PATTERSON      CLOUDY    64  60  87 NE6       30.02F
SALT POINT       N/A     65  60  84 CALM      30.00F
NEW IBERIA     MOSUNNY   66  59  78 NE5       30.03S
CHENAULT AIRPK PTSUNNY   64  57  77 CALM      30.03F

$$

LAZ027-028-251800-
CENTRAL LOUISIANA

CITY           SKY/WX    TMP DP  RH WIND       PRES   REMARKS
FORT POLK      CLOUDY    59  55  87 CALM      30.05F
ALEXANDRIA INT CLOUDY    60  53  77 NE6       30.03F
ALEXANDRIA     CLOUDY    65  54  67 CALM      30.04F

$$

LAZ001-002-251800-
NORTHWEST LOUISIANA

CITY           SKY/WX    TMP DP  RH WIND       PRES   REMARKS
SHREVEPORT     CLOUDY    58  49  72 VRB5      30.05S
BARKSDALE AFB  CLOUDY    56  50  80 E3        30.05S
DTN SHREVEPORT CLOUDY    58  51  78 N3        30.06S

$$

LAZ014-016-251800-
NORTHEAST LOUISIANA

CITY           SKY/WX    TMP DP  RH WIND       PRES   REMARKS
MONROE         CLOUDY    57  52  83 NE5       30.07S
TALLULAH       CLOUDY    60  53  77 N3        30.05S

$$





USA.gov is the U.S. government's official web portal to all federal, state and local government web resources and services.